This is the latest recevied weather packets stored in our database for station/object K6HN. If no packets are shown the sender has not sent any weather packets the latest 10 day(s).
| Time | Temp. | Humidity | Pressure | Rain* | Wind** | Luminosity | Snow |
|---|---|---|---|---|---|---|---|
| 1777500778 | 15° C | 47% | 1003.7 hPa | 0 mm | - | - | - |
| 1777499878 | 15° C | 48% | 1003.7 hPa | 0 mm | - | - | - |
| 1777498078 | 15° C | 48% | 1003.7 hPa | 0 mm | - | - | - |
| 1777496278 | 14.44° C | 49% | 1004.1 hPa | 0 mm | - | - | - |
| 1777494478 | 15° C | 50% | 1004.1 hPa | 0 mm | - | - | - |
| 1777492678 | 16.11° C | 48% | 1004.1 hPa | 0 mm | - | - | - |
| 1777490878 | 15.56° C | 48% | 1004.4 hPa | 0 mm | - | - | - |
| 1777489978 | 15° C | 48% | 1004.4 hPa | 0 mm | - | - | - |
| 1777487278 | 16.11° C | 49% | 1004.1 hPa | 0 mm | - | - | - |
| 1777486378 | 16.11° C | 48% | 1004.1 hPa | 0 mm | - | - | - |
| 1777485478 | 16.11° C | 48% | 1004.1 hPa | 0 mm | - | - | - |
| 1777483678 | 15.56° C | 47% | 1004.1 hPa | 0 mm | - | - | - |
| 1777482778 | 15° C | 48% | 1004.1 hPa | 0 mm | - | - | - |
| 1777481878 | 14.44° C | 48% | 1004.1 hPa | 0 mm | - | - | - |
| 1777480078 | 13.33° C | 49% | 1004.4 hPa | 0 mm | - | - | - |
| 1777478278 | 12.22° C | 47% | 1004.4 hPa | 0 mm | - | - | - |
| 1777476478 | 11.11° C | 48% | 1004.4 hPa | 0 mm | - | - | - |
| 1777471978 | 10° C | 48% | 1004.1 hPa | 0 mm | - | - | - |
| 1777471078 | 10° C | 48% | 1003.7 hPa | 0 mm | - | - | - |
| 1777469278 | 10.56° C | 48% | 1003.4 hPa | 0 mm | - | - | - |
| 1777468378 | 10.56° C | 48% | 1003 hPa | 0 mm | - | - | - |
| 1777467478 | 10.56° C | 48% | 1003.4 hPa | 0 mm | - | - | - |
| 1777465678 | 11.11° C | 48% | 1003.7 hPa | 0 mm | - | - | - |
| 1777464778 | 11.11° C | 48% | 1003.7 hPa | 0 mm | - | - | - |
| 1777463878 | 11.11° C | 48% | 1003.7 hPa | 0 mm | - | - | - |
* Rain latest hour (hover to see other rain measurements)
** Current wind speed in m/s (hover to see current wind gust speed)